Location: Newark
(42.8481°N, 0.4872°E)
Time: 18:46:15
(UTC+00:00)

Vanguard 1 - Pass Details

Date: 29 October 2020
Orbit: 650 x 3833 km, 34.2° (Epoch: 23 November)

Event Time Altitude Azimuth Distance (km) Brightness Sun altitude
Rises 14:17:33 0° 256° (WSW) 7,710 15.5 23.1°
Reaches altitude 10° 14:22:36 10° 254° (WSW) 6,843 15.5 22.5°
Maximum altitude 14:45:54 67° 179° (S) 3,722 13.6 19.4°
Drops below altitude 10° 15:02:59 10° 102° (ESE) 5,251 13.5 17.1°
Sets 15:06:16 0° 99° (E) 5,919 13.7 16.6°
